Location: Kuffner-Sternwarte
(48.2130°N, 16.2960°E)
Time: 05:39:54
(UTC+02:00)

Envisat - Pass Details

Date: 28 September 2024
Orbit: 762 x 764 km, 98.3° (Epoch: 04 October)

Event Time Altitude Azimuth Distance (km) Brightness Sun altitude
Rises 04:33:53 0° 11° (N) 3,237 6.7 -22.9°
Reaches altitude 10° 04:36:13 10° 8° (N) 2,307 5.9 -22.6°
Maximum altitude 04:41:13 62° 289° (WNW) 857 3.0 -21.8°
Enters shadow 04:42:16 50° 239° (WSW) 966 3.1 -21.7°
